• In Hungary
  • List of Countries
  • For 7 days
  • Water Temperature
  • Satellite Maps
  • Weather Map
  • News
  • Weather Widgets
  • user-avatar
    Login

    Hourly Weather Cochabamba

    Today, 17 December, Sunday

    Time Temperature Precipitation Wind Pressure Humidity
    00:00 +17°C° 0 mm 2 mps 554 mmHg 70%
    01:00 +17°C° 0 mm 2 mps 554 mmHg 70%
    02:00 +16°C° 0 mm 1 mps 554 mmHg 71%
    03:00 +16°C° 0 mm 1 mps 554 mmHg 71%
    04:00 +16°C° 0 mm 1 mps 553 mmHg 70%
    05:00 +15°C° 0 mm 1 mps 553 mmHg 70%
    06:00 +18°C° 0 mm 1 mps 554 mmHg 64%
    07:00 +19°C° 0 mm 1 mps 555 mmHg 58%
    08:00 +20°C° 0 mm 1 mps 556 mmHg 52%
    09:00 +20°C° 0 mm 2 mps 557 mmHg 46%
    10:00 +23°C° 0 mm 2 mps 557 mmHg 41%
    11:00 +25°C° 0 mm 2 mps 558 mmHg 36%
    12:00 +25°C° 0.1 mm 2 mps 557 mmHg 37%
    13:00 +26°C° 0.1 mm 2 mps 557 mmHg 38%
    14:00 +26°C° 0.1 mm 3 mps 557 mmHg 39%
    15:00 +26°C° 0.3 mm 3 mps 556 mmHg 40%
    16:00 +26°C° 0.3 mm 3 mps 556 mmHg 41%
    17:00 +26°C° 0.3 mm 3 mps 555 mmHg 42%
    18:00 +24°C° 0.1 mm 3 mps 555 mmHg 49%
    19:00 +22°C° 0.1 mm 3 mps 555 mmHg 55%
    20:00 +21°C° 0.1 mm 3 mps 555 mmHg 61%
    21:00 +20°C° 0.1 mm 3 mps 556 mmHg 64%
    22:00 +19°C° 0.1 mm 3 mps 556 mmHg 67%
    23:00 +19°C° 0.1 mm 3 mps 556 mmHg 70%

    Tomorrow, 18 December, Monday

    Time Temperature Precipitation Wind Pressure Humidity
    00:00 +18°C° 0.1 mm 3 mps 556 mmHg 71%
    01:00 +18°C° 0.1 mm 2 mps 556 mmHg 73%
    02:00 +17°C° 0.1 mm 2 mps 555 mmHg 75%
    03:00 +17°C° 0.1 mm 2 mps 555 mmHg 76%
    04:00 +16°C° 0.1 mm 2 mps 555 mmHg 77%
    05:00 +16°C° 0.1 mm 2 mps 555 mmHg 78%
    06:00 +16°C° 0.4 mm 2 mps 556 mmHg 76%
    07:00 +16°C° 0.4 mm 2 mps 557 mmHg 73%
    08:00 +17°C° 0.4 mm 2 mps 557 mmHg 70%
    09:00 +18°C° 0.2 mm 2 mps 558 mmHg 65%
    10:00 +19°C° 0.2 mm 2 mps 558 mmHg 60%
    11:00 +19°C° 0.2 mm 2 mps 559 mmHg 55%
    12:00 +20°C° 0.2 mm 2 mps 558 mmHg 53%
    13:00 +21°C° 0.2 mm 2 mps 558 mmHg 52%
    14:00 +21°C° 0.2 mm 3 mps 557 mmHg 50%
    15:00 +21°C° 0.2 mm 3 mps 557 mmHg 53%
    16:00 +20°C° 0.2 mm 3 mps 556 mmHg 56%
    17:00 +20°C° 0.2 mm 3 mps 556 mmHg 59%
    18:00 +19°C° 0.2 mm 2 mps 556 mmHg 63%
    19:00 +18°C° 0.2 mm 2 mps 556 mmHg 67%
    20:00 +17°C° 0.2 mm 2 mps 556 mmHg 71%
    21:00 +17°C° 0.1 mm 2 mps 556 mmHg 72%
    22:00 +16°C° 0.1 mm 2 mps 557 mmHg 72%
    23:00 +16°C° 0.1 mm 1 mps 557 mmHg 73%

    Day after tomorrow, 19 December, Tuesday

    Time Temperature Precipitation Wind Pressure Humidity
    00:00 +16°C° 0 mm 1 mps 556 mmHg 73%
    01:00 +15°C° 0 mm 1 mps 556 mmHg 72%
    02:00 +15°C° 0 mm 1 mps 556 mmHg 72%
    03:00 +15°C° 0 mm 1 mps 555 mmHg 72%
    04:00 +15°C° 0 mm 1 mps 555 mmHg 72%
    05:00 +14°C° 0 mm 1 mps 555 mmHg 72%
    06:00 +15°C° 0.1 mm 1 mps 556 mmHg 69%
    07:00 +16°C° 0.1 mm 1 mps 556 mmHg 67%
    08:00 +16°C° 0.1 mm 1 mps 557 mmHg 64%
    09:00 +19°C° 0.1 mm 1 mps 557 mmHg 60%
    10:00 +20°C° 0.1 mm 1 mps 558 mmHg 55%
    11:00 +20°C° 0.1 mm 2 mps 558 mmHg 51%
    12:00 +21°C° 0.1 mm 2 mps 558 mmHg 50%
    13:00 +21°C° 0.1 mm 3 mps 557 mmHg 49%
    14:00 +22°C° 0.1 mm 4 mps 557 mmHg 48%
    15:00 +21°C° 0.2 mm 3 mps 556 mmHg 51%
    16:00 +21°C° 0.2 mm 3 mps 556 mmHg 53%
    17:00 +20°C° 0.2 mm 3 mps 555 mmHg 56%
    18:00 +19°C° 0.1 mm 3 mps 555 mmHg 61%
    19:00 +18°C° 0.1 mm 3 mps 555 mmHg 65%
    20:00 +17°C° 0.1 mm 2 mps 555 mmHg 70%
    21:00 +16°C° 0 mm 2 mps 555 mmHg 70%
    22:00 +16°C° 0 mm 2 mps 555 mmHg 70%
    23:00 +16°C° 0 mm 1 mps 556 mmHg 70%

    20 December, Wednesday

    Time Temperature Precipitation Wind Pressure Humidity
    00:00 +15°C° 0 mm 1 mps 555 mmHg 70%
    01:00 +15°C° 0 mm 1 mps 555 mmHg 71%
    02:00 +13°C° 0 mm 0 mps 554 mmHg 71%
    03:00 +13°C° 0 mm 0 mps 554 mmHg 72%
    04:00 +13°C° 0 mm 0 mps 554 mmHg 72%
    05:00 +13°C° 0 mm 0 mps 554 mmHg 72%
    06:00 +14°C° 0 mm 0 mps 555 mmHg 67%
    07:00 +15°C° 0 mm 0 mps 555 mmHg 61%
    08:00 +16°C° 0 mm 0 mps 556 mmHg 56%
    09:00 +19°C° 0 mm 1 mps 557 mmHg 52%
    10:00 +20°C° 0 mm 1 mps 557 mmHg 48%
    11:00 +21°C° 0 mm 2 mps 557 mmHg 45%
    12:00 +21°C° 0.2 mm 2 mps 557 mmHg 45%
    13:00 +22°C° 0.2 mm 3 mps 556 mmHg 46%
    14:00 +22°C° 0.2 mm 3 mps 555 mmHg 46%
    15:00 +22°C° 0.1 mm 3 mps 555 mmHg 49%
    16:00 +21°C° 0.1 mm 3 mps 554 mmHg 52%
    17:00 +21°C° 0.1 mm 3 mps 553 mmHg 54%
    18:00 +20°C° 0.1 mm 3 mps 554 mmHg 59%
    19:00 +19°C° 0.1 mm 3 mps 554 mmHg 64%
    20:00 +18°C° 0.1 mm 2 mps 554 mmHg 68%
    21:00 +18°C° 0.1 mm 2 mps 554 mmHg 69%
    22:00 +17°C° 0.1 mm 2 mps 554 mmHg 70%
    23:00 +17°C° 0.1 mm 2 mps 555 mmHg 71%

    21 December, Thursday

    Time Temperature Precipitation Wind Pressure Humidity
    00:00 +17°C° 0.1 mm 2 mps 554 mmHg 72%
    01:00 +16°C° 0.1 mm 2 mps 554 mmHg 73%
    02:00 +16°C° 0.1 mm 2 mps 553 mmHg 74%
    03:00 +16°C° 0.1 mm 2 mps 553 mmHg 74%
    04:00 +15°C° 0.1 mm 2 mps 553 mmHg 74%
    05:00 +15°C° 0.1 mm 2 mps 553 mmHg 74%
    06:00 +16°C° 0.2 mm 2 mps 554 mmHg 70%
    07:00 +17°C° 0.2 mm 2 mps 554 mmHg 66%
    08:00 +18°C° 0.2 mm 2 mps 555 mmHg 62%
    09:00 +19°C° 0.3 mm 2 mps 555 mmHg 58%
    10:00 +20°C° 0.3 mm 3 mps 556 mmHg 54%
    11:00 +21°C° 0.3 mm 3 mps 556 mmHg 51%
    12:00 +21°C° 0.3 mm 4 mps 555 mmHg 50%
    13:00 +22°C° 0.3 mm 4 mps 555 mmHg 50%
    14:00 +22°C° 0.3 mm 4 mps 554 mmHg 50%
    15:00 +22°C° 0.2 mm 4 mps 554 mmHg 53%
    16:00 +22°C° 0.2 mm 4 mps 553 mmHg 55%
    17:00 +21°C° 0.2 mm 4 mps 553 mmHg 58%
    18:00 +20°C° 0.1 mm 4 mps 553 mmHg 62%
    19:00 +19°C° 0.1 mm 3 mps 553 mmHg 67%
    20:00 +18°C° 0.1 mm 3 mps 553 mmHg 71%
    21:00 +18°C° 0.2 mm 3 mps 553 mmHg 72%
    22:00 +18°C° 0.2 mm 2 mps 554 mmHg 73%
    23:00 +17°C° 0.2 mm 2 mps 554 mmHg 74%

    22 December, Friday

    Time Temperature Precipitation Wind Pressure Humidity
    00:00 +17°C° 0.3 mm 2 mps 553 mmHg 74%
    01:00 +17°C° 0.3 mm 2 mps 553 mmHg 75%
    02:00 +16°C° 0.3 mm 2 mps 552 mmHg 75%
    03:00 +16°C° 0.3 mm 2 mps 552 mmHg 75%
    04:00 +16°C° 0.3 mm 2 mps 552 mmHg 75%
    05:00 +16°C° 0.3 mm 2 mps 552 mmHg 74%
    06:00 +16°C° 0.4 mm 2 mps 553 mmHg 73%
    07:00 +16°C° 0.4 mm 2 mps 553 mmHg 72%
    08:00 +17°C° 0.4 mm 2 mps 554 mmHg 71%
    09:00 +17°C° 0.3 mm 2 mps 554 mmHg 68%
    10:00 +18°C° 0.3 mm 3 mps 554 mmHg 65%
    11:00 +19°C° 0.3 mm 3 mps 554 mmHg 62%
    12:00 +19°C° 0.1 mm 3 mps 554 mmHg 60%
    13:00 +20°C° 0.1 mm 3 mps 553 mmHg 58%
    14:00 +21°C° 0.1 mm 3 mps 553 mmHg 56%
    15:00 +21°C° 0.1 mm 3 mps 552 mmHg 57%
    16:00 +21°C° 0.1 mm 4 mps 552 mmHg 58%
    17:00 +21°C° 0.1 mm 4 mps 552 mmHg 59%
    18:00 +20°C° 0.2 mm 4 mps 552 mmHg 64%
    19:00 +19°C° 0.2 mm 4 mps 552 mmHg 69%
    20:00 +18°C° 0.2 mm 4 mps 552 mmHg 74%
    21:00 +17°C° 0.3 mm 3 mps 552 mmHg 75%
    22:00 +17°C° 0.3 mm 3 mps 552 mmHg 77%
    23:00 +17°C° 0.3 mm 2 mps 553 mmHg 79%
    Show more